Oceana NAS, VA

1:43 AM EST on February 20, 2018 (GMT -0500)
Oceana Naval Air Station

Weather History for KNTU - December, 2012

Change the Weather History Date:

Wednesday, December 12, 2012

  Actual Average Record
Temperature  
Mean Temperature 48 °F -  
Max Temperature 50 °F 52 °F 78 °F (2007)
Min Temperature 46 °F 36 °F 26 °F (2013)
Degree Days  
Heating Degree Days 17    
Moisture  
Dew Point 36 °F    
Average Humidity 66    
Maximum Humidity 73    
Minimum Humidity 59    
Precipitation  
Precipitation 0.01 in - - ()
Sea Level Pressure  
Sea Level Pressure 30.29 in    
Wind  
Wind Speed 15 mph (NNE)    
Max Wind Speed 20 mph    
Max Gust Speed 26 mph    
Visibility 10 miles    
Events Rain    
Averages and records for this station are not official NWS values.
T = Trace of Precipitation, MM = Missing Value Source: NWS Daily Summary

Daily Weather History Graph

Daily Weather History Graph

Search for Another Location

Airport or City:

Trip Planner

Search our weather history database for the weather conditions in past years. The results will help you decide how hot, cold, wet, or windy it might be!

Date:

Astronomy

Dec. 12, 2012 Rise Set
Actual Time 7:07 AM EST 4:48 PM EST
Civil Twilight 6:38 AM EST 5:17 PM EST
Nautical Twilight 6:06 AM EST 5:49 PM EST
Astronomical Twilight 5:35 AM EST 6:21 PM EST
Moon 6:10 AM EST (12/12) 4:22 PM EST (12/12)
Length of Visible Light 10h 38m
Length of Day
9h 40m
Waning Crescent, 1% of the Moon is Illuminated
Dec 12
Waning Crescent
Dec 13
New
Dec 20
First Quarter
Dec 28
Full
Jan 4
Last Quarter

Hourly Weather History & Observations

Time (EST) Temp. Windchill Dew Point Humidity Pressure Visibility Wind Dir Wind Speed Gust Speed Precip Events Conditions
12:56 AM 50.0 °F - 36.0 °F 59% 30.18 in 10.0 mi NE 12.7 mph - N/A   Overcast
1:56 AM 48.9 °F - 37.9 °F 66% 30.20 in 10.0 mi NNE 11.5 mph - N/A   Overcast
2:56 AM 48.0 °F - 37.9 °F 68% 30.23 in 10.0 mi NE 13.8 mph - 0.00 in Rain Light Rain
3:27 AM 48.2 °F - 37.4 °F 66% 30.21 in 10.0 mi NNE 18.4 mph 24.2 mph 0.00 in   Overcast
3:56 AM 46.9 °F - 37.0 °F 68% 30.22 in 10.0 mi NNE 12.7 mph 24.2 mph 0.00 in   Overcast
4:56 AM 46.9 °F - 35.1 °F 63% 30.23 in 10.0 mi NNE 17.3 mph - N/A   Overcast
5:10 AM 46.4 °F 39.8 °F 35.6 °F 66% 30.23 in 10.0 mi NNE 16.1 mph - 0.00 in Rain Light Rain
5:56 AM 46.0 °F 40.2 °F 37.9 °F 73% 30.25 in 10.0 mi NE 12.7 mph - 0.00 in Rain Light Rain
6:26 AM 46.4 °F 39.8 °F 35.6 °F 66% 30.25 in 10.0 mi NNE 16.1 mph 23.0 mph 0.00 in   Overcast
6:28 AM 46.4 °F 39.5 °F 35.6 °F 66% 30.25 in 10.0 mi NNE 17.3 mph 23.0 mph 0.00 in   Overcast
6:56 AM 46.9 °F - 37.0 °F 68% 30.27 in 10.0 mi NNE 15.0 mph - 0.00 in   Overcast
7:56 AM 46.9 °F - 37.0 °F 68% 30.29 in 10.0 mi NNE 16.1 mph - N/A   Overcast
8:56 AM 46.9 °F - 37.0 °F 68% 30.31 in 10.0 mi NNE 19.6 mph 24.2 mph 0.00 in   Light Drizzle
9:56 AM 46.9 °F - 37.9 °F 71% 30.33 in 10.0 mi NNE 17.3 mph - 0.00 in Rain Light Rain
10:36 AM 46.4 °F 39.8 °F 37.4 °F 71% 30.33 in 10.0 mi NNE 16.1 mph - 0.01 in   Overcast
10:56 AM 46.9 °F - 37.9 °F 71% 30.33 in 10.0 mi NE 16.1 mph - 0.01 in   Overcast
11:34 AM 46.4 °F 39.8 °F 37.4 °F 71% 30.32 in 10.0 mi NNE 16.1 mph 21.9 mph 0.00 in Rain Light Rain
11:56 AM 48.0 °F - 37.9 °F 68% 30.32 in 10.0 mi NNE 15.0 mph - 0.00 in   Overcast
12:56 PM 46.9 °F - 37.0 °F 68% 30.31 in 10.0 mi NNE 15.0 mph - N/A   Overcast
1:56 PM 48.0 °F - 37.0 °F 66% 30.31 in 10.0 mi NNE 15.0 mph - N/A   Overcast
2:56 PM 46.9 °F - 34.0 °F 61% 30.30 in 10.0 mi NNE 15.0 mph - N/A   Overcast
3:56 PM 46.9 °F - 33.1 °F 59% 30.31 in 10.0 mi NNE 13.8 mph 25.3 mph N/A   Overcast
4:56 PM 46.9 °F - 33.1 °F 59% 30.32 in 10.0 mi NNE 17.3 mph 24.2 mph N/A   Overcast
5:56 PM 46.9 °F - 35.1 °F 63% 30.31 in 10.0 mi NNE 16.1 mph - N/A   Overcast
6:56 PM 46.9 °F - 35.1 °F 63% 30.34 in 10.0 mi NNE 17.3 mph 26.5 mph N/A   Overcast
7:56 PM 46.9 °F - 36.0 °F 66% 30.33 in 10.0 mi NNE 18.4 mph 24.2 mph N/A   Overcast
8:16 PM 46.4 °F 39.8 °F 35.6 °F 66% 30.31 in 10.0 mi NNE 16.1 mph - N/A   Overcast
8:56 PM 46.9 °F - 35.1 °F 63% 30.33 in 10.0 mi NNE 17.3 mph 25.3 mph N/A   Overcast
9:38 PM 46.4 °F 39.2 °F 35.6 °F 66% 30.34 in 10.0 mi NNE 18.4 mph 24.2 mph N/A   Overcast
9:56 PM 46.9 °F - 35.1 °F 63% 30.35 in 10.0 mi NNE 17.3 mph - N/A   Overcast
10:56 PM 46.0 °F 38.5 °F 36.0 °F 68% 30.31 in 10.0 mi NNE 19.6 mph - N/A   Overcast
11:56 PM 46.0 °F 39.6 °F 36.0 °F 68% 30.32 in 10.0 mi North 15.0 mph - N/A   Overcast